Location: Kaarina
(60.4167°N, 22.4167°E)
Time: 19:02:07
(UTC+03:00)

USA 267 - Pass Details

Date: 24 August 2019
Orbit: 1102 x 1106 km, 123.0° (Epoch: 17 September)

Event Time Altitude Azimuth Distance (km) Brightness Sun altitude
Rises 23:06:22 0° 83° (E) 3,925 5.9 -12.9°
Reaches altitude 10° 23:08:53 10° 86° (E) 2,967 5.2 -13.1°
Maximum altitude 23:15:23 64° 168° (SSE) 1,214 3.2 -13.6°
Drops below altitude 10° 23:21:53 10° 250° (WSW) 2,963 5.7 -14.0°
Sets 23:24:24 0° 253° (WSW) 3,920 6.4 -14.2°
